GFSFLT1_500_rhum_228.txt.gz
RH
35 39 33 28 26 22 23 25 24 24 22 22 24 26 29 34 36 36 33 31 31 32 35 38 43 48 54 60 58 61 57 53
41 36 28 29 27 26 26 24 23 24 25 29 35 38 39 41 38 34 31 31 29 29 30 34 34 35 38 38 37 40 46 55
29 40 36 32 33 34 32 31 31 34 38 39 38 38 37 35 34 34 36 37 36 36 37 40 42 43 43 43 42 38 32 25
33 33 37 40 40 41 39 40 40 43 42 37 34 36 37 38 41 44 45 45 44 44 45 47 47 46 47 46 42 40 39 39
37 42 45 45 43 42 45 46 43 41 36 35 36 37 39 41 43 44 49 52 56 56 57 58 59 58 56 52 50 50 52 50
44 48 47 43 43 43 43 46 44 40 39 40 40 41 39 36 40 45 49 48 50 57 61 61 63 64 66 68 73 74 76 77
48 50 44 41 42 45 47 50 50 45 39 34 33 30 26 30 35 42 46 49 44 37 32 35 56 67 66 64 62 60 59 61
47 41 39 42 46 52 52 45 33 27 29 33 31 28 28 23 18 16 14 12 22 43 56 64 72 69 48 40 34 32 33 34
40 41 46 49 59 64 64 45 38 44 47 33 22 21 18 20 16 13 14 16 23 35 49 60 66 72 72 61 59 61 48 45
44 46 57 71 69 73 68 51 54 58 42 30 32 29 23 18 19 22 30 30 29 28 33 38 47 52 46 38 34 33 32 25
58 62 62 57 59 53 44 41 51 43 42 36 25 21 21 20 18 18 18 17 18 20 26 39 41 33 21 11 7 8 7 6
59 53 60 66 60 53 52 58 47 52 41 35 29 28 25 20 18 18 18 16 19 28 36 36 13 5 6 5 6 7 7 22
55 62 75 69 65 67 68 56 58 50 44 34 30 26 22 21 17 16 20 23 31 39 23 5 7 8 10 10 11 11 9 13
64 77 71 70 72 78 70 67 60 53 37 31 28 24 20 16 18 20 25 36 34 9 8 9 12 18 20 23 24 18 16 14
62 66 68 74 72 68 65 60 60 43 37 31 24 15 12 14 18 29 41 20 6 8 13 14 16 20 30 39 35 44 48 35
67 70 74 73 78 76 68 63 53 45 36 25 17 17 20 30 37 39 17 6 9 11 13 11 12 15 29 48 47 75 88 90
72 73 79 82 88 74 67 62 53 40 29 19 20 23 37 36 34 8 7 8 11 15 14 14 13 30 52 64 78 78 100 100
78 82 93 97 83 75 70 60 46 36 28 26 33 37 35 28 7 8 9 12 14 15 12 19 32 42 35 100 100 98 90 94
94 99 100 100 86 81 70 57 49 33 38 45 37 37 24 8 9 10 12 13 13 10 28 37 47 44 56 78 80 92 89 80

GFSFLT1_500_rhum_231.txt.gz
RH
38 40 35 36 39 34 31 26 24 26 25 27 29 27 28 31 34 35 32 31 32 33 34 36 36 38 40 42 44 43 46 48
40 48 41 39 38 39 34 35 35 34 33 34 35 34 33 33 31 28 28 30 31 34 38 41 40 42 44 47 46 41 41 44
41 45 43 41 38 32 35 38 40 41 44 46 42 38 34 30 30 32 34 34 35 36 36 36 34 30 28 27 28 28 35 50
43 47 53 48 36 33 35 40 42 44 46 42 36 32 32 34 36 38 37 42 41 36 37 35 30 23 20 22 25 28 26 42
49 50 48 44 42 43 46 46 46 43 38 35 34 34 36 40 43 46 46 32 32 33 30 26 27 26 25 26 28 26 28 25
52 50 47 47 46 47 46 45 43 42 40 37 41 44 42 39 36 39 33 33 26 21 20 20 18 15 14 19 27 36 41 52
49 50 48 51 55 48 46 48 48 48 46 45 43 42 43 43 36 30 25 23 23 23 20 16 16 16 18 21 26 34 55 74
46 48 50 56 57 54 55 56 59 58 55 49 47 42 39 33 29 28 28 24 22 19 18 21 22 23 17 16 18 26 46 54
46 50 56 59 59 61 58 59 59 57 58 53 44 38 37 39 40 34 30 25 23 22 23 25 20 16 14 18 20 23 26 31
52 58 60 57 60 63 63 64 67 72 74 75 71 60 42 41 42 36 29 26 26 27 23 20 16 12 13 14 20 26 24 14
52 54 60 62 66 72 80 86 86 81 82 79 69 52 45 48 52 48 37 34 29 26 20 14 12 15 22 26 23 12 6 5
56 60 65 70 76 84 83 82 87 87 82 78 67 62 62 58 54 50 41 36 28 19 14 12 15 26 25 12 6 6 8 10
62 62 62 68 68 66 73 77 77 80 80 70 59 53 57 63 63 51 42 29 20 16 15 20 27 22 9 6 7 10 11 11
63 59 59 58 64 70 72 71 74 76 69 62 54 61 74 69 60 44 36 26 17 17 28 31 16 6 7 9 12 14 15 13
63 67 66 68 75 82 84 84 77 74 75 74 75 79 74 66 54 49 33 21 20 34 29 14 6 8 9 10 11 12 16 25
69 74 83 90 92 87 82 81 83 84 92 87 80 74 69 60 53 38 22 27 34 30 11 6 8 9 9 6 16 26 33 38
80 77 83 87 84 87 86 86 91 100 83 72 70 73 64 55 35 25 34 39 29 7 6 9 11 8 7 23 33 33 28 32
77 82 87 90 88 92 95 95 94 75 63 72 76 69 55 38 33 40 41 29 7 7 9 11 9 7 11 28 31 35 44 46
82 85 97 97 97 93 90 91 72 65 77 77 74 60 44 39 43 44 28 8 7 10 11 12 9 10 15 29 32 36 42 39

GFSFLT1_500_rhum_234.txt.gz
RH
40 40 42 42 37 39 34 32 30 30 29 30 30 30 32 34 37 38 34 34 35 33 33 35 39 42 41 37 34 35 32 30
41 46 54 55 47 41 36 32 32 33 35 36 34 38 43 45 42 38 36 34 36 40 41 41 41 40 36 32 28 27 23 19
44 49 52 62 53 48 41 40 42 41 40 38 44 48 46 44 41 39 36 36 37 37 37 35 30 25 22 19 16 15 14 14
43 51 60 64 57 48 48 47 50 52 52 54 54 52 45 41 40 38 40 42 39 38 39 34 26 22 18 16 14 14 13 16
52 59 64 61 59 45 45 54 55 57 57 56 53 45 41 42 42 42 43 41 39 37 31 27 26 20 17 18 20 22 23 19
57 59 60 54 51 51 54 60 59 59 58 52 46 45 44 44 46 44 42 36 34 31 28 24 22 24 26 26 25 25 22 22
63 54 52 53 54 54 57 61 61 56 53 49 45 48 52 52 53 49 42 38 34 30 30 32 32 32 31 29 28 29 28 26
60 50 54 55 53 54 58 60 57 52 48 45 48 52 53 57 54 51 43 38 34 35 36 41 44 50 44 40 39 38 31 24
64 62 67 61 60 62 60 57 51 51 51 55 55 57 60 60 58 55 52 48 48 49 48 49 53 56 52 49 46 36 29 20
69 68 64 60 67 64 60 59 59 59 60 62 58 62 60 58 53 54 52 52 53 54 56 60 60 58 53 48 44 31 22 21
70 69 67 69 71 65 66 69 69 72 70 64 68 62 61 63 62 62 55 50 56 60 64 61 56 50 48 44 29 25 23 12
71 69 64 65 67 68 71 71 75 83 79 80 68 64 64 68 66 58 58 66 69 66 59 56 54 51 40 29 30 22 10 4
75 70 66 70 70 71 72 77 90 88 81 70 68 67 71 70 75 71 68 74 66 59 56 55 52 34 31 33 23 8 4 5
78 78 84 83 75 76 79 82 85 84 78 76 77 76 78 81 74 70 70 64 60 57 56 54 35 34 36 22 8 5 5 5
72 73 80 82 80 76 80 83 75 73 78 83 77 85 82 75 66 59 60 58 59 64 60 40 41 40 26 8 6 5 5 6
66 70 75 75 73 76 76 76 77 81 77 80 85 80 77 66 60 56 60 63 67 64 47 45 44 27 8 7 6 6 6 9
72 77 73 74 80 80 79 79 77 81 85 82 76 76 71 64 56 65 73 78 73 54 48 48 25 8 8 7 8 8 12 16
80 86 91 90 86 80 75 81 80 75 81 79 78 73 68 66 73 81 85 78 58 49 52 26 10 11 10 9 12 11 11 21
91 92 88 93 86 77 74 74 79 85 79 75 67 69 75 86 91 91 82 63 53 57 23 11 14 14 11 11 15 15 13 20

GFSFLT1_500_rhum_237.txt.gz
RH
61 62 48 40 38 34 31 40 42 43 45 46 41 33 32 31 32 30 32 37 39 37 36 36 35 32 32 33 32 28 25 20
56 61 52 45 41 36 35 36 42 35 39 36 32 34 34 33 33 34 42 46 43 41 39 40 38 37 38 34 31 24 21 20
50 56 58 55 53 46 38 40 38 38 41 41 39 40 40 41 45 48 49 47 44 40 37 37 32 27 26 25 24 23 22 22
49 55 60 56 59 61 50 44 42 47 45 48 49 47 47 48 49 52 48 42 40 36 32 28 28 29 28 27 26 24 24 25
52 61 63 66 65 70 68 54 51 53 51 47 47 52 54 52 54 46 41 41 42 42 43 43 40 38 36 33 30 28 28 30
56 68 69 67 69 70 69 60 54 56 54 52 58 60 59 52 45 44 44 48 48 46 42 42 40 40 39 39 40 41 43 43
62 61 65 76 75 67 65 61 56 57 60 63 63 58 51 47 44 46 52 49 48 45 43 44 44 44 47 46 46 47 45 46
57 60 68 72 67 64 68 69 65 61 62 60 62 56 53 53 56 60 61 53 48 47 47 44 43 45 49 49 49 49 52 54
52 57 63 65 67 67 67 67 67 67 63 62 64 58 61 63 64 60 54 53 53 52 52 49 48 52 53 53 56 58 52 50
60 58 62 64 65 64 64 63 58 56 56 58 56 60 62 64 60 58 55 53 55 53 54 54 55 59 60 56 52 49 46 51
64 62 60 63 65 65 60 54 54 56 57 57 57 57 59 61 59 59 59 61 61 63 60 58 67 64 54 51 50 52 56 50
66 64 64 62 64 61 57 54 60 64 62 61 63 67 68 64 59 64 70 67 66 61 64 69 66 59 55 50 57 60 54 46
71 73 70 72 72 68 67 68 71 69 68 69 72 71 66 64 71 74 74 70 64 66 70 64 58 55 50 55 62 58 49 26
68 71 72 73 73 73 80 85 82 80 80 80 77 72 73 80 75 76 73 65 67 71 65 61 58 53 58 62 63 53 28 9
76 76 79 84 85 83 92 94 91 88 84 77 72 78 78 81 81 77 71 72 74 68 65 63 56 60 69 69 58 33 12 8
69 74 80 82 87 95 98 96 87 82 79 79 84 86 84 81 78 80 78 74 71 68 65 65 71 82 78 62 42 17 8 10
68 71 74 78 86 93 93 88 85 88 92 90 82 77 80 87 81 80 77 76 74 68 70 86 97 91 68 48 26 9 12 12
65 70 74 82 91 94 92 90 90 97 97 87 77 75 83 92 90 84 82 79 81 84 93 99 99 79 52 27 12 12 16 16
80 82 83 88 93 94 94 92 93 95 90 78 74 80 89 87 87 87 86 93 94 100 100 100 87 56 29 13 13 19 20 20